Find Starlink 33936

NORAD ID: 64005 Int'l Des: 2025-101 Owner: SPXS Country: US Constellation: starlink operational
LEOCIRCULAR

リアルタイム位置

3D地球を読み込み中...

Starlink 33936について

説明を読み込み中...

次回通過

Passes for default location (London). Set your location on the main map for personalized predictions.

高度履歴

Loading altitude history...

軌道要素

1 64005U 25101M 26104.82877782 .00006732 00000-0 25394-3 0 9990
2 64005 42.9993 153.7486 0001384 278.7852 81.2843 15.27580962 52583
Epoch: Apr 14, 2026 • Age: 6 hours

現在のステータス

高度 495.3 km
速度 7.62 km/s
衛星直下点 -42.81°S, 175.96°W
打ち上げ日 May 14, 2025
運用期間 0.9 years
タイプ internet

技術仕様

分類 Payload
質量 575.00 kg
乾燥質量 530.00 kg
総質量 575.00 kg
長さ 0.30 m
直径 4.10 m
スパン 29.00 m
形状 Box + pan
製造者 SPXS
バスタイプ Starlink V2MO
フェーズステータス In Orbit
所有者/国 SPXS/US

Most Searched